{"data":{"norad_id":61244,"intl_designator":"2024-175B","name":"STARLINK-11276 [DTC]","alt_names":[],"object_type":"PAYLOAD","status":"ACTIVE","operator":null,"country":"US","launch_date":"2024-09-25","launch_site_code":"AFWTR","launch_vehicle":null,"mission":null,"orbit_class":"UNKNOWN","rcs_meters":null,"size_class":null,"mass_kg":null,"dimensions":null,"purposes":["comms"],"wikipedia_slug":null,"has_3d_model":false,"image_url":null,"decayed_at":null,"tle_current":{"epoch":"2026-09-21T06:15:51.130944Z","epoch_age_seconds":126335,"freshness":"FRESH","line1":"1 61244U 24175B   26264.26100846  .00000496  00000+0  89504-5 0  9992","line2":"2 61244  53.1601 172.1381 0001130  86.1826 273.9321 15.69706588114080","mean_motion":15.69706588,"eccentricity":0.000113,"inclination_deg":53.1601,"raan_deg":172.1381,"arg_perigee_deg":86.1826,"mean_anomaly_deg":273.9321,"bstar":8.9504e-6,"rev_number":11408,"period_min":91.736889620546,"perigee_km":358.97513456831,"apogee_km":360.49789398254,"semimajor_km":6737.8735142754,"source":"CELESTRAK","updated_at":"2026-09-22T09:00:49.347293Z"}}}